Location: Observatory
(52.1446°N, 0.4624°W)
Time: 04:34:27
(UTC+01:00)

ISS - Pass Details

Date: 24 July 2021
Orbit: 419 x 421 km, 51.6° (Epoch: 03 August)

Event Time Altitude Azimuth Distance (km) Brightness Sun altitude
Rises 22:51:28 0° 281° (WNW) 2,374 0.8 -12.2°
Reaches altitude 10° 22:53:36 10° 276° (W) 1,508 -0.4 -12.4°
Maximum altitude 22:56:53 49° 201° (SSW) 550 -3.4 -12.7°
Enters shadow 22:58:41 23° 135° (SE) 944 -2.6 -12.8°
